Weather History for Hyannis, MA

Change the Weather History Date:

Monday, June 18, 2012

  Actual Average Record
Temperature  
Mean Temperature 56 °F -  
Max Temperature 63 °F 73 °F 87 °F (2014)
Min Temperature 50 °F 57 °F 37 °F (1965)
Degree Days  
Heating Degree Days 8    
Growing Degree Days 6 (Base 50)    
Moisture  
Dew Point 53 °F    
Average Humidity 85    
Maximum Humidity 94    
Minimum Humidity 75    
Precipitation  
Precipitation 0.00 in - - ()
Sea Level Pressure  
Sea Level Pressure 30.15 in    
Wind  
Wind Speed 3 mph (ENE)    
Max Wind Speed 9 mph    
Max Gust Speed -    
Visibility 10 miles    
Events      
Averages and records for this station are not official NWS values.
T = Trace of Precipitation, MM = Missing Value Source: NWS Daily Summary

Daily Weather History Graph

Daily Weather History Graph

Search for Another Location

Airport:

Trip Planner

Search our weather history database for the weather conditions in past years. The results will help you decide how hot, cold, wet, or windy it might be!

Date:

Astronomy

Jun. 18, 2012 Rise Set
Actual Time 5:06 AM EDT 8:18 PM EDT
Civil Twilight 4:32 AM EDT 8:52 PM EDT
Nautical Twilight 3:48 AM EDT 9:36 PM EDT
Astronomical Twilight 2:55 AM EDT 10:29 PM EDT
Moon 4:18 AM EDT (6/18) 7:33 PM EDT (6/18)
Length of Visible Light 16h 20m
Length of Day
15h 12m
Waning Crescent, 1% of the Moon is Illuminated
Jun 18
Waning Crescent
Jun 19
New
Jun 26
First Quarter
Jul 3
Full
Jul 10
Last Quarter

Hourly Weather History & Observations

Time (EDT) Temp. Dew Point Humidity Pressure Visibility Wind Dir Wind Speed Gust Speed Precip Events Conditions
12:56 AM 55.9 °F 52.0 °F 87% 30.15 in 10.0 mi ENE 3.5 mph - N/A   Overcast
1:21 AM 55.4 °F 51.8 °F 88% 30.14 in 10.0 mi Calm Calm - N/A   Overcast
1:39 AM 55.4 °F 51.8 °F 88% 30.15 in 10.0 mi NE 4.6 mph - N/A   Overcast
1:56 AM 55.9 °F 52.0 °F 87% 30.15 in 10.0 mi NE 3.5 mph - N/A   Overcast
2:56 AM 55.9 °F 52.0 °F 87% 30.14 in 10.0 mi Calm Calm - N/A   Overcast
3:26 AM 55.4 °F 51.8 °F 88% 30.13 in 10.0 mi NNE 4.6 mph - N/A   Overcast
3:56 AM 55.9 °F 53.1 °F 90% 30.12 in 10.0 mi NE 3.5 mph - N/A   Overcast
4:56 AM 57.0 °F 54.0 °F 89% 30.13 in 10.0 mi Calm Calm - N/A   Overcast
5:28 AM 57.2 °F 53.6 °F 88% 30.13 in 10.0 mi NNE 4.6 mph - N/A   Overcast
5:56 AM 57.0 °F 54.0 °F 89% 30.13 in 10.0 mi NE 4.6 mph - N/A   Overcast
6:47 AM 57.2 °F 55.4 °F 94% 30.13 in 10.0 mi NE 5.8 mph - N/A   Overcast
6:56 AM 57.9 °F 55.0 °F 90% 30.14 in 10.0 mi NE 5.8 mph - N/A   Overcast
7:56 AM 60.1 °F 55.0 °F 83% 30.14 in 10.0 mi NE 6.9 mph - N/A   Overcast
8:56 AM 61.0 °F 55.0 °F 81% 30.14 in 10.0 mi ENE 3.5 mph - N/A   Overcast
9:56 AM 63.0 °F 55.9 °F 78% 30.15 in 10.0 mi North 6.9 mph - N/A   Overcast
10:56 AM 63.0 °F 55.9 °F 78% 30.15 in 10.0 mi North 6.9 mph - N/A   Overcast
11:56 AM 62.1 °F 55.9 °F 80% 30.16 in 10.0 mi Variable 3.5 mph - N/A   Overcast
12:15 PM 60.8 °F 55.4 °F 82% 30.15 in 10.0 mi Calm Calm - N/A   Overcast
12:56 PM 59.0 °F 55.9 °F 90% 30.16 in 8.0 mi Calm Calm - 0.00 in   Overcast
1:56 PM 59.0 °F 55.9 °F 90% 30.16 in 10.0 mi SE 5.8 mph - N/A   Overcast
2:54 PM 60.8 °F 55.4 °F 82% 30.15 in 10.0 mi ESE 3.5 mph - N/A   Overcast
2:56 PM 61.0 °F 55.0 °F 81% 30.16 in 10.0 mi ESE 3.5 mph - N/A   Overcast
3:56 PM 62.1 °F 55.0 °F 78% 30.15 in 10.0 mi ESE 6.9 mph - N/A   Overcast
4:56 PM 62.1 °F 55.0 °F 78% 30.14 in 10.0 mi ESE 9.2 mph - N/A   Overcast
5:56 PM 60.1 °F 54.0 °F 80% 30.14 in 10.0 mi SSE 5.8 mph - N/A   Mostly Cloudy
6:56 PM 60.1 °F 52.0 °F 75% 30.14 in 10.0 mi SE 6.9 mph - N/A   Clear
7:56 PM 57.9 °F 52.0 °F 81% 30.14 in 10.0 mi Calm Calm - N/A   Clear
8:56 PM 55.0 °F 53.1 °F 93% 30.14 in 10.0 mi Calm Calm - N/A   Clear
9:56 PM 52.0 °F 50.0 °F 93% 30.16 in 10.0 mi Calm Calm - N/A   Clear
10:56 PM 50.0 °F 48.0 °F 93% 30.17 in 10.0 mi Calm Calm - N/A   Clear
11:56 PM 50.0 °F 46.4 °F 87% 30.16 in 10.0 mi Calm Calm - N/A   Clear